Time,TemperatureF,DewpointF,PressureIn,WindDirection,WindDirectionDegrees,WindSpeedMPH,WindSpeedGustMPH,Humidity,HourlyPrecipIn,Conditions,Clouds,dailyrainin,SoftwareType,DateUTC
2013-10-30 10:47:00,67.8,64.1,28.94,SE,135,4.9,4.9,88,0.00,,,0.00,WUHU216HW,2013-10-30 15:47:00,
2013-10-30 10:48:00,67.8,64.1,28.94,SE,135,4.9,4.9,88,0.00,,,0.00,WUHU216HW,2013-10-30 15:48:00,
2013-10-30 10:53:00,68.0,64.2,28.94,SE,135,0.8,4.9,88,0.00,,,0.00,WUHU216HW,2013-10-30 15:53:00,
2013-10-30 10:58:00,68.0,64.2,28.94,SE,135,0.8,0.8,88,0.00,,,0.00,WUHU216HW,2013-10-30 15:58:00,
2013-10-30 11:03:00,67.8,64.1,28.94,SE,135,0.8,0.8,88,0.00,,,0.00,WUHU216HW,2013-10-30 16:03:00,
2013-10-30 11:08:00,67.8,64.1,28.93,SSE,158,1.5,1.5,88,0.00,,,0.00,WUHU216HW,2013-10-30 16:08:00,
2013-10-30 11:14:00,67.8,64.1,28.93,SSE,158,3.5,3.5,88,0.00,,,0.00,WUHU216HW,2013-10-30 16:14:00,
2013-10-30 11:19:00,67.8,64.1,28.93,SSE,158,3.5,3.5,88,0.00,,,0.00,WUHU216HW,2013-10-30 16:19:00,
2013-10-30 11:24:00,67.6,63.9,28.94,SSE,158,5.5,5.5,88,0.00,,,0.00,WUHU216HW,2013-10-30 16:24:00,
2013-10-30 11:29:00,67.6,63.9,28.94,SSE,158,3.3,5.5,88,0.00,,,0.00,WUHU216HW,2013-10-30 16:29:00,
2013-10-30 11:34:00,67.6,63.9,28.93,SE,135,0.0,4.6,88,0.00,,,0.00,WUHU216HW,2013-10-30 16:34:00,
2013-10-30 11:39:00,67.6,63.9,28.92,SE,135,0.0,0.0,88,0.00,,,0.00,WUHU216HW,2013-10-30 16:39:00,
2013-10-30 11:44:00,67.6,63.9,28.94,SE,135,0.0,0.0,88,0.00,,,0.00,WUHU216HW,2013-10-30 16:44:00,
2013-10-30 11:49:00,67.6,63.9,28.94,SE,135,0.0,0.0,88,0.00,,,0.00,WUHU216HW,2013-10-30 16:49:00,
2013-10-30 12:25:00,0.0,62.7,28.93,SSE,158,6.9,6.9,91,0.00,,,0.00,WUHU216HW,2013-10-30 17:25:00,
2013-10-30 12:30:00,0.0,-2.0,28.94,SSE,158,0.0,6.9,91,0.00,,,0.00,WUHU216HW,2013-10-30 17:30:00,
2013-10-30 12:35:00,0.0,-2.0,28.94,South,180,11.8,11.8,91,0.00,,,0.00,WUHU216HW,2013-10-30 17:35:00,
2013-10-30 12:40:00,0.0,-2.0,28.93,South,180,11.8,11.8,91,0.00,,,0.00,WUHU216HW,2013-10-30 17:40:00,
2013-10-30 12:45:00,0.0,-1.8,28.92,ESE,113,3.8,11.8,92,0.00,,,0.00,WUHU216HW,2013-10-30 17:45:00,
2013-10-30 12:50:00,64.9,62.2,28.92,ESE,113,3.8,11.8,91,0.00,,,0.00,WUHU216HW,2013-10-30 17:50:00,
2013-10-30 12:55:00,64.9,62.2,28.91,ESE,113,3.8,3.8,91,0.00,,,0.00,WUHU216HW,2013-10-30 17:55:00,
2013-10-30 13:00:00,64.9,62.2,28.92,ESE,113,3.8,3.8,91,0.00,,,0.00,WUHU216HW,2013-10-30 18:00:00,
2013-10-30 14:13:00,68.9,61.7,28.87,SE,135,4.4,4.4,78,0.00,,,0.00,WUHU216HW,2013-10-30 19:13:00,
2013-10-30 14:18:00,68.9,61.7,28.87,SE,135,4.4,4.4,78,0.00,,,0.00,WUHU216HW,2013-10-30 19:18:00,
2013-10-30 14:23:00,69.0,61.9,28.87,SE,135,4.4,4.4,78,0.00,,,0.00,WUHU216HW,2013-10-30 19:23:00,
2013-10-30 14:28:00,69.0,61.9,28.86,SE,135,4.4,4.4,78,0.00,,,0.00,WUHU216HW,2013-10-30 19:28:00,
2013-10-30 14:33:00,69.2,61.7,28.86,SSE,158,3.5,6.9,77,0.00,,,0.00,WUHU216HW,2013-10-30 19:33:00,
2013-10-30 14:38:00,68.5,60.6,28.86,SE,135,4.0,6.9,76,0.00,,,0.00,WUHU216HW,2013-10-30 19:38:00,
2013-10-30 14:43:00,67.8,60.3,28.86,SE,135,4.0,4.4,77,0.00,,,0.00,WUHU216HW,2013-10-30 19:43:00,
2013-10-30 14:48:00,67.2,60.2,28.85,SE,135,4.6,4.6,78,0.00,,,0.00,WUHU216HW,2013-10-30 19:48:00,
2013-10-30 14:53:00,67.2,60.2,28.84,ESE,113,3.3,4.6,78,0.00,,,0.00,WUHU216HW,2013-10-30 19:53:00,
2013-10-30 14:59:00,67.2,60.2,28.84,SE,135,6.2,6.2,78,0.00,,,0.00,WUHU216HW,2013-10-30 19:59:00,
2013-10-30 15:04:00,66.7,59.6,28.83,ESE,113,2.2,6.2,78,0.00,,,0.00,WUHU216HW,2013-10-30 20:04:00,
2013-10-30 15:09:00,66.2,59.9,28.83,SSE,158,8.0,8.0,80,0.00,,,0.00,WUHU216HW,2013-10-30 20:09:00,
2013-10-30 15:14:00,66.2,59.9,28.85,SSE,158,8.0,8.0,80,0.00,,,0.00,WUHU216HW,2013-10-30 20:14:00,
2013-10-30 15:19:00,63.6,59.0,28.85,SSE,158,8.0,8.0,85,0.00,,,0.00,WUHU216HW,2013-10-30 20:19:00,
2013-10-30 15:24:00,63.1,58.8,28.86,SSE,158,0.0,8.0,86,0.00,,,0.00,WUHU216HW,2013-10-30 20:24:00,
2013-10-30 15:29:00,62.9,58.7,28.85,SSE,158,0.0,8.0,86,0.00,,,0.00,WUHU216HW,2013-10-30 20:29:00,
2013-10-30 15:34:00,62.6,59.0,28.84,SE,135,0.0,6.9,88,0.00,,,0.00,WUHU216HW,2013-10-30 20:34:00,
2013-10-30 15:39:00,62.6,59.0,28.85,SE,135,0.0,6.9,88,0.00,,,0.00,WUHU216HW,2013-10-30 20:39:00,
2013-10-30 15:44:00,62.4,59.1,28.85,SE,135,0.0,0.0,89,0.00,,,0.00,WUHU216HW,2013-10-30 20:44:00,
2013-10-30 15:51:00,62.4,59.1,28.85,SE,135,0.0,0.0,89,0.00,,,0.00,WUHU216HW,2013-10-30 20:51:00,
2013-10-30 16:04:00,62.7,60.1,28.85,SE,135,0.0,0.0,91,0.00,,,0.00,WUHU216HW,2013-10-30 21:04:00,
2013-10-30 16:11:00,63.1,60.5,28.85,SSE,158,0.0,0.0,91,0.00,,,0.00,WUHU216HW,2013-10-30 21:11:00,
2013-10-30 16:16:00,63.3,61.0,28.85,SE,135,0.0,0.0,92,0.00,,,0.00,WUHU216HW,2013-10-30 21:16:00,
2013-10-30 16:21:00,63.3,61.0,28.84,ESE,113,0.0,0.0,92,0.00,,,0.00,WUHU216HW,2013-10-30 21:21:00,
2013-10-30 16:26:00,63.3,61.0,28.85,SE,135,3.3,3.3,92,0.00,,,0.00,WUHU216HW,2013-10-30 21:26:00,
2013-10-30 16:31:00,63.1,60.8,28.85,SE,135,5.5,5.5,92,0.00,,,0.00,WUHU216HW,2013-10-30 21:31:00,
2013-10-30 16:36:00,63.1,60.8,28.84,SSE,158,0.0,5.5,92,0.00,,,0.00,WUHU216HW,2013-10-30 21:36:00,
2013-10-30 16:41:00,63.1,60.8,28.85,SE,135,2.2,5.5,92,0.00,,,0.00,WUHU216HW,2013-10-30 21:41:00,
2013-10-30 16:46:00,63.1,60.8,28.85,South,180,0.0,4.6,92,0.00,,,0.00,WUHU216HW,2013-10-30 21:46:00,
2013-10-30 16:51:00,62.9,60.6,28.84,SE,135,0.0,4.6,92,0.00,,,0.00,WUHU216HW,2013-10-30 21:51:00,
2013-10-30 16:56:00,62.9,60.6,28.84,SE,135,0.0,0.0,92,0.00,,,0.00,WUHU216HW,2013-10-30 21:56:00,
2013-10-30 17:01:00,63.1,60.8,28.83,ESE,113,0.0,0.0,92,0.00,,,0.00,WUHU216HW,2013-10-30 22:01:00,
2013-10-30 17:06:00,63.1,60.8,28.83,SE,135,2.0,2.0,92,0.00,,,0.00,WUHU216HW,2013-10-30 22:06:00,
2013-10-30 17:11:00,63.1,60.8,28.83,SSE,158,0.0,2.0,92,0.00,,,0.00,WUHU216HW,2013-10-30 22:11:00,
2013-10-30 17:16:00,63.3,61.0,28.83,ESE,113,0.0,2.6,92,0.00,,,0.00,WUHU216HW,2013-10-30 22:16:00,
2013-10-30 17:21:00,63.3,61.0,28.83,SE,135,0.0,2.6,92,0.00,,,0.00,WUHU216HW,2013-10-30 22:21:00,
2013-10-30 17:26:00,63.1,60.8,28.83,SSE,158,0.0,3.3,92,0.00,,,0.00,WUHU216HW,2013-10-30 22:26:00,
2013-10-30 17:32:00,63.3,61.0,28.83,SE,135,0.0,3.3,92,0.00,,,0.00,WUHU216HW,2013-10-30 22:32:00,
2013-10-30 17:37:00,63.3,61.0,28.83,SSE,158,3.8,3.8,92,0.00,,,0.00,WUHU216HW,2013-10-30 22:37:00,
2013-10-30 17:42:00,63.1,60.8,28.83,SSE,158,0.0,4.0,92,0.00,,,0.00,WUHU216HW,2013-10-30 22:42:00,
2013-10-30 17:47:00,63.1,60.8,28.82,SSE,158,0.0,7.1,92,0.00,,,0.00,WUHU216HW,2013-10-30 22:47:00,
2013-10-30 17:52:00,63.1,61.1,28.82,SSE,158,3.3,7.1,93,0.00,,,0.00,WUHU216HW,2013-10-30 22:52:00,
2013-10-30 17:57:00,63.1,61.1,28.81,SE,135,2.2,8.7,93,0.00,,,0.00,WUHU216HW,2013-10-30 22:57:00,
2013-10-30 18:02:00,62.9,60.9,28.81,SE,135,0.0,8.7,93,0.00,,,0.00,WUHU216HW,2013-10-30 23:02:00,
2013-10-30 18:07:00,62.9,60.9,28.81,SE,135,8.0,8.0,93,0.00,,,0.00,WUHU216HW,2013-10-30 23:07:00,
2013-10-30 18:12:00,62.9,60.9,28.81,SSE,158,0.0,8.0,93,0.00,,,0.00,WUHU216HW,2013-10-30 23:12:00,
2013-10-30 18:17:00,62.9,60.9,28.81,SE,135,0.0,6.2,93,0.00,,,0.00,WUHU216HW,2013-10-30 23:17:00,
2013-10-30 18:22:00,62.9,60.9,28.81,SE,135,0.0,6.0,93,0.00,,,0.00,WUHU216HW,2013-10-30 23:22:00,
2013-10-30 18:27:00,62.9,60.9,28.81,SSE,158,0.0,8.0,93,0.00,,,0.00,WUHU216HW,2013-10-30 23:27:00,
2013-10-30 18:32:00,62.9,60.9,28.81,SE,135,0.0,8.0,93,0.00,,,0.00,WUHU216HW,2013-10-30 23:32:00,
2013-10-30 18:37:00,62.9,60.9,28.81,SSE,158,0.0,0.0,93,0.00,,,0.00,WUHU216HW,2013-10-30 23:37:00,
2013-10-30 18:42:00,62.9,60.9,28.82,SE,135,0.0,0.0,93,0.00,,,0.00,WUHU216HW,2013-10-30 23:42:00,
2013-10-30 18:47:00,62.9,60.9,28.82,SE,135,0.0,0.0,93,0.00,,,0.00,WUHU216HW,2013-10-30 23:47:00,
2013-10-30 18:52:00,62.9,60.9,28.82,SE,135,0.0,0.0,93,0.00,,,0.00,WUHU216HW,2013-10-30 23:52:00,
2013-10-30 18:57:00,62.9,60.9,28.82,SSE,158,1.5,1.5,93,0.00,,,0.00,WUHU216HW,2013-10-30 23:57:00,
2013-10-30 19:02:00,62.9,60.9,28.81,SSE,158,1.5,1.5,93,0.00,,,0.00,WUHU216HW,2013-10-31 00:02:00,
2013-10-30 19:07:00,62.9,60.9,28.82,SSE,158,1.5,1.5,93,0.00,,,0.00,WUHU216HW,2013-10-31 00:07:00,
2013-10-30 19:12:00,62.7,60.7,28.82,WSW,248,0.0,1.5,93,0.00,,,0.00,WUHU216HW,2013-10-31 00:12:00,
2013-10-30 19:17:00,62.7,60.7,28.81,ESE,113,1.1,2.6,93,0.00,,,0.00,WUHU216HW,2013-10-31 00:17:00,
2013-10-30 19:22:00,62.7,60.7,28.82,SE,135,0.0,2.6,93,0.00,,,0.00,WUHU216HW,2013-10-31 00:22:00,
2013-10-30 19:27:00,62.6,60.5,28.82,SSE,158,0.0,1.1,93,0.00,,,0.00,WUHU216HW,2013-10-31 00:27:00,
2013-10-30 19:32:00,62.4,60.4,28.82,SSE,158,0.0,0.0,93,0.00,,,0.00,WUHU216HW,2013-10-31 00:32:00,
2013-10-30 19:37:00,62.4,60.4,28.82,SE,135,2.0,2.0,93,0.00,,,0.00,WUHU216HW,2013-10-31 00:37:00,
2013-10-30 19:42:00,62.4,60.4,28.82,SE,135,3.1,8.0,93,0.00,,,0.00,WUHU216HW,2013-10-31 00:42:00,
2013-10-30 19:47:00,62.4,60.4,28.82,South,180,6.2,8.0,93,0.00,,,0.00,WUHU216HW,2013-10-31 00:47:00,
2013-10-30 19:52:00,62.2,60.2,28.83,SSE,158,0.0,6.2,93,0.00,,,0.00,WUHU216HW,2013-10-31 00:52:00,
2013-10-30 19:57:00,62.2,60.2,28.83,SSE,158,0.0,6.2,93,0.00,,,0.00,WUHU216HW,2013-10-31 00:57:00,
2013-10-30 20:03:00,62.2,60.2,28.83,SSE,158,0.0,0.0,93,0.00,,,0.00,WUHU216HW,2013-10-31 01:03:00,
2013-10-30 20:08:00,62.2,60.2,28.83,SSE,158,0.0,0.0,93,0.00,,,0.00,WUHU216HW,2013-10-31 01:08:00,
2013-10-30 20:13:00,62.2,60.2,28.83,SSE,158,0.0,0.0,93,0.00,,,0.00,WUHU216HW,2013-10-31 01:13:00,
2013-10-30 20:18:00,62.2,60.2,28.83,SSE,158,0.0,0.0,93,0.00,,,0.00,WUHU216HW,2013-10-31 01:18:00,
2013-10-30 20:23:00,62.2,60.2,28.82,SSE,158,0.0,0.0,93,0.00,,,0.00,WUHU216HW,2013-10-31 01:23:00,
2013-10-30 20:28:00,62.2,60.2,28.83,SSE,158,0.0,0.0,93,0.00,,,0.00,WUHU216HW,2013-10-31 01:28:00,